Dewpoint
48 48 49 49 50 50 51 50 51 51 50 51 50 50 50 49 49 49 49 50 50 50 51 51 51 51 50 49 49 49 48 48 49 49 49 48 47 48 47 48 46 47 46 45 44 44 44 44 45 45 46 43
48 48 48 48 49 49 50 50 51 50 50 49 49 49 48 48 48 48 49 49 49 50 51 51 51 50 50 48 48 48 48 47 47 48 47 47 47 46 47 46 45 44 44 43 42 42 43 43 44 45 44 40
47 48 48 48 48 49 49 49 50 49 48 48 48 48 47 47 47 46 47 47 47 48 50 50 50 49 49 48 47 47 47 45 46 47 46 46 45 45 45 44 44 43 42 41 40 40 41 41 42 43 43 39
46 47 47 48 48 48 48 49 49 48 47 47 46 45 46 46 45 45 45 46 45 46 46 47 47 48 48 47 47 46 46 45 45 46 45 45 44 43 41 41 41 40 40 39 38 38 39 39 41 36 38 39
44 45 46 46 46 46 47 47 47 47 46 46 45 44 43 41 39 39 39 41 41 44 43 44 45 46 47 47 47 46 45 45 46 45 45 43 41 40 39 39 37 37 37 36 36 36 36 38 33 36 36 37
43 43 43 41 41 41 42 43 44 41 38 40 36 38 37 34 34 32 33 37 41 39 41 42 43 44 46 47 46 45 44 45 44 43 42 40 38 36 35 34 35 36 38 33 33 33 34 31 33 36 36 35
40 38 37 37 35 36 37 38 36 32 34 31 32 34 32 30 30 31 34 37 40 39 40 40 41 42 42 42 42 42 41 40 40 39 38 37 35 33 32 35 31 32 33 30 33 35 30 30 32 35 37 35
33 32 31 29 30 28 28 31 32 30 31 33 33 34 29 27 32 32 34 40 38 36 34 35 35 34 35 36 37 35 38 35 36 34 33 31 31 41 38 29 29 29 28 26 27 27 28 29 31 32 35 36
31 29 28 28 26 25 26 30 29 30 33 34 34 33 27 27 28 27 27 30 32 27 26 30 32 35 34 33 32 35 33 34 36 34 32 29 33 29 30 29 27 28 27 27 27 27 27 28 30 32 34 36
28 28 25 23 22 24 25 30 27 28 30 32 33 32 30 29 24 21 25 28 30 30 28 31 31 32 31 32 31 35 30 29 29 29 28 28 27 26 28 28 28 27 29 27 27 27 29 27 28 30 33 35
27 24 23 22 22 23 23 25 25 26 28 29 32 32 31 29 28 27 28 29 30 30 28 29 29 28 28 30 28 27 28 28 27 27 26 26 26 27 28 28 27 28 27 28 29 28 29 28 28 30 32 33
23 23 23 23 28 24 28 27 25 25 25 29 30 31 27 30 27 27 27 29 30 29 27 28 28 27 27 27 26 25 28 27 25 25 26 26 25 25 26 26 26 25 26 27 29 29 27 28 28 29 31 32
21 22 23 24 24 23 31 25 25 24 27 27 28 29 30 29 26 25 26 28 28 27 28 28 27 27 27 27 25 26 25 27 25 25 25 25 24 24 24 25 25 25 23 24 25 27 26 26 27 30 30 31
20 22 23 24 23 24 29 24 25 27 26 25 26 26 30 30 28 26 25 27 26 27 28 29 29 27 27 26 25 25 25 24 25 24 24 24 24 22 22 22 23 25 24 24 25 26 25 24 24 28 29 30
18 22 23 25 22 25 23 25 27 26 25 25 24 26 30 31 31 27 26 26 27 28 29 28 28 27 26 25 25 25 25 24 24 24 26 28 23 23 21 22 23 24 22 24 25 25 25 24 23 24 29 30
18 21 23 24 21 25 21 26 25 25 23 28 24 28 30 30 29 28 27 27 27 27 27 26 26 25 25 25 25 25 25 24 24 25 27 27 26 24 23 22 23 23 21 22 21 25 25 23 23 23 27 29
19 22 25 23 21 24 26 25 25 23 23 24 24 28 30 30 29 27 28 28 28 30 27 26 26 25 27 24 25 28 28 27 26 25 26 26 28 26 23 23 22 27 21 21 20 20 20 22 22 22 25 28
20 22 24 24 22 25 24 24 23 23 23 24 25 28 29 30 29 27 27 29 28 27 26 27 27 26 25 25 26 27 29 28 26 25 25 25 24 26 24 22 21 20 19 19 20 20 21 21 22 22 23 28
19 21 24 24 22 23 24 23 21 21 22 23 25 26 29 30 30 27 27 28 28 28 26 26 26 25 25 25 26 26 27 26 23 24 24 24 20 20 21 21 20 21 20 19 18 18 20 19 19 22 24 27
18 19 22 23 26 24 25 22 20 22 21 22 23 25 27 30 29 28 28 28 27 26 25 25 25 25 24 26 25 25 24 24 21 23 24 22 24 20 21 22 19 20 19 19 18 19 21 19 21 20 21 27
17 17 19 20 20 25 25 21 20 21 21 22 21 22 25 28 29 28 28 28 28 26 25 23 23 24 26 26 24 25 24 24 24 24 27 21 23 24 21 22 21 18 19 20 21 19 20 21 19 20 19 24
16 16 18 19 19 26 23 20 20 20 20 21 21 21 23 27 28 28 28 27 27 26 25 25 24 25 24 25 25 25 24 23 22 24 25 22 22 22 23 22 22 21 20 24 23 21 20 20 19 20 20 19
15 15 15 16 17 21 22 20 20 20 20 21 20 20 24 26 26 28 27 27 27 26 25 23 24 24 25 24 25 25 23 22 22 23 23 24 22 23 23 22 23 22 23 25 26 25 22 21 19 18 20 21
15 14 15 15 16 19 22 19 21 20 19 19 19 22 24 26 25 26 27 26 26 25 25 23 24 24 25 23 23 24 23 22 22 22 23 24 24 22 22 23 22 20 18 21 23 26 24 21 19 17 21 18
14 14 14 15 15 16 18 18 18 20 19 18 19 22 23 25 24 24 26 26 26 24 26 23 23 24 24 23 23 23 24 23 22 23 24 24 24 24 21 21 22 22 22 20 20 23 23 22 20 20 21 17
15 15 13 13 14 15 18 17 18 16 16 18 22 23 22 25 24 24 25 26 25 24 24 22 22 22 24 23 21 22 24 23 26 25 23 23 21 23 24 22 22 23 21 18 18 18 20 21 21 20 20 18
15 15 16 13 14 14 16 16 17 16 18 19 20 21 22 24 24 24 24 25 25 24 24 22 22 22 23 23 23 21 21 22 21 22 22 21 21 19 22 23 25 21 22 17 19 17 13 13 16 21 19 19
17 16 17 17 16 15 15 15 17 17 19 18 19 19 21 22 23 24 23 25 25 25 24 22 21 22 22 22 23 21 20 20 20 21 22 20 20 19 17 18 20 23 22 21 16 10 15 18 14 12 17 18
19 20 19 19 20 19 18 18 18 15 17 17 18 19 20 21 23 24 23 24 24 24 24 24 23 22 21 22 22 21 20 20 20 21 22 22 21 19 19 17 17 20 21 19 21 17 13 10 9 15 14 19
19 21 19 19 20 19 18 17 17 16 15 16 17 17 18 20 23 23 22 23 24 24 24 24 24 23 22 21 24 24 22 20 20 21 21 21 21 20 20 20 17 15 21 22 22 21 21 16 14 15 15 11
19 19 17 18 18 17 16 16 18 15 16 18 18 19 18 19 22 23 22 23 23 24 24 24 24 23 23 23 23 25 23 22 21 22 21 22 21 21 22 20 19 18 19 19 20 19 19 19 20 18 15 13